| time (UTC) | temp F | wind direction | speed knots | gust knots | rain 1hr in | rain 24hr in | rain mn in | humidity % | barometer mb |
| 20260906230039 | 61 | 26 | 3.5 | 7.8 | 0.00 | 1.01 | 0.80 | 81 | 1016.7 |
| 20260906224543 | 59 | 26 | 3.5 | 7.8 | 0.00 | 1.01 | 0.80 | 85 | 1017.2 |
| 20260906223044 | 58 | 19 | 3.5 | 7.0 | 0.00 | 1.01 | 0.80 | 85 | 1017.3 |
| 20260906221541 | 58 | 301 | 2.6 | 7.0 | 0.00 | 1.01 | 0.80 | 84 | 1017.2 |
| 20260906220042 | 58 | 11 | 3.5 | 7.8 | 0.00 | 1.01 | 0.80 | 83 | 1017.3 |
| 20260906214538 | 59 | 315 | 2.6 | 7.8 | 0.00 | 1.01 | 0.80 | 82 | 1017.2 |
| 20260906213041 | 60 | 238 | 2.6 | 7.8 | 0.00 | 1.01 | 0.80 | 79 | 1017.1 |
| 20260906211537 | 61 | 242 | 1.7 | 6.1 | 0.00 | 1.01 | 0.80 | 79 | 1017.0 |
| 20260906210046 | 61 | 32 | 1.7 | 6.1 | 0.00 | 1.01 | 0.80 | 79 | 1016.9 |
| 20260906204543 | 59 | 34 | 2.6 | 7.8 | 0.00 | 1.01 | 0.80 | 82 | 1017.0 |
| 20260906203040 | 57 | 68 | 3.5 | 8.7 | 0.00 | 1.01 | 0.80 | 84 | 1017.0 |
| 20260906201540 | 57 | 34 | 4.3 | 10.4 | 0.00 | 1.01 | 0.80 | 83 | 1017.2 |
| 20260906200041 | 58 | 57 | 4.3 | 9.6 | 0.00 | 1.01 | 0.80 | 81 | 1017.3 |
| 20260906194539 | 60 | 17 | 6.1 | 11.3 | 0.00 | 1.01 | 0.80 | 78 | 1017.1 |
| 20260906193041 | 61 | 346 | 5.2 | 11.3 | 0.00 | 1.01 | 0.80 | 77 | 1017.1 |
| 20260906191538 | 61 | 313 | 4.3 | 12.2 | 0.00 | 1.01 | 0.80 | 77 | 1017.2 |
| 20260906190043 | 61 | 344 | 5.2 | 13.0 | 0.00 | 1.01 | 0.80 | 76 | 1016.9 |
| 20260906184542 | 62 | 251 | 3.5 | 12.2 | 0.00 | 1.01 | 0.80 | 77 | 1016.7 |
| 20260906183047 | 59 | 317 | 4.3 | 11.3 | 0.00 | 1.01 | 0.80 | 81 | 1016.7 |
| 20260906181544 | 56 | 277 | 7.0 | 13.9 | 0.00 | 1.01 | 0.80 | 81 | 1017.1 |
| 20260906180040 | 55 | 9 | 6.1 | 13.9 | 0.02 | 1.01 | 0.80 | 85 | 1017.6 |
| 20260906174543 | 54 | 36 | 7.0 | 12.2 | 0.02 | 1.01 | 0.80 | 87 | 1018.0 |
| 20260906173038 | 53 | 34 | 6.1 | 12.2 | 0.02 | 1.01 | 0.80 | 92 | 1018.1 |
| 20260906171540 | 52 | 341 | 6.1 | 13.0 | 0.02 | 1.01 | 0.80 | 92 | 1019.0 |
| 20260906170035 | 52 | 304 | 4.3 | 9.6 | 0.00 | 0.99 | 0.78 | 91 | 1019.5 |
| 20260906164540 | 52 | 351 | 4.3 | 9.6 | 0.00 | 0.99 | 0.78 | 90 | 1019.1 |
| 20260906163038 | 53 | 299 | 2.6 | 8.7 | 0.00 | 0.99 | 0.78 | 91 | 1018.9 |
| 20260906161539 | 52 | 51 | 4.3 | 10.4 | 0.00 | 0.99 | 0.78 | 93 | 1018.7 |
| 20260906160038 | 52 | 309 | 4.3 | 10.4 | 0.01 | 0.99 | 0.78 | 92 | 1019.0 |
| 20260906154536 | 51 | 340 | 5.2 | 13.9 | 0.47 | 0.99 | 0.78 | 93 | 1019.1 |
| 20260906153039 | 51 | 344 | 5.2 | 11.3 | 0.66 | 0.99 | 0.78 | 93 | 1019.4 |
| 20260906151547 | 51 | 311 | 4.3 | 10.4 | 0.74 | 0.99 | 0.78 | 93 | 1019.6 |
| 20260906150037 | 51 | 326 | 4.3 | 8.7 | 0.73 | 0.98 | 0.77 | 92 | 1020.2 |
| 20260906144541 | 52 | 199 | 0.9 | 13.9 | 0.26 | 0.52 | 0.30 | 91 | 1020.1 |
| 20260906143036 | 53 | 286 | 2.6 | 10.4 | 0.07 | 0.33 | 0.11 | 90 | 1020.0 |
| 20260906141540 | 55 | 200 | 2.6 | 7.0 | 0.00 | 0.26 | 0.04 | 85 | 1019.5 |
| 20260906140037 | 59 | 14 | 4.3 | 10.4 | 0.00 | 0.26 | 0.04 | 79 | 1018.8 |
| 20260906134536 | 58 | 306 | 4.3 | 11.3 | 0.00 | 0.32 | 0.04 | 80 | 1018.6 |
| 20260906133046 | 56 | 146 | 2.6 | 5.2 | 0.00 | 0.32 | 0.04 | 83 | 1018.7 |
| 20260906131541 | 55 | 222 | 3.5 | 7.0 | 0.00 | 0.32 | 0.04 | 85 | 1018.7 |
| 20260906130038 | 55 | 11 | 4.3 | 9.6 | 0.00 | 0.32 | 0.04 | 86 | 1018.8 |
| 20260906124540 | 56 | 215 | 2.6 | 5.2 | 0.00 | 0.33 | 0.04 | 81 | 1018.9 |
| 20260906123041 | 57 | 278 | 1.7 | 8.7 | 0.00 | 0.33 | 0.04 | 79 | 1019.3 |
| 20260906121536 | 57 | 218 | 6.1 | 15.6 | 0.00 | 0.33 | 0.04 | 75 | 1019.2 |
| 20260906120039 | 59 | 13 | 6.1 | 13.9 | 0.00 | 0.33 | 0.04 | 66 | 1018.6 |
| 20260906114542 | 55 | 86 | 0.9 | 4.3 | 0.00 | 0.33 | 0.04 | 78 | 1019.3 |
| 20260906113047 | 54 | 45 | 1.7 | 3.5 | 0.00 | 0.33 | 0.04 | 81 | 1019.3 |
| 20260906111539 | 54 | 271 | 1.7 | 4.3 | 0.00 | 0.33 | 0.04 | 80 | 1018.7 |
| 20260906110035 | 54 | 40 | 0.9 | 7.0 | 0.00 | 0.33 | 0.04 | 80 | 1018.7 |
| 20260906104541 | 53 | 13 | 4.3 | 10.4 | 0.00 | 0.33 | 0.04 | 85 | 1018.6 |
| 20260906103050 | 53 | 330 | 7.0 | 11.3 | 0.00 | 0.33 | 0.04 | 87 | 1018.7 |
| 20260906101547 | 53 | 312 | 6.1 | 14.8 | 0.00 | 0.33 | 0.04 | 88 | 1019.0 |
| 20260906100036 | 53 | 22 | 5.2 | 10.4 | 0.01 | 0.33 | 0.04 | 89 | 1019.2 |
| 20260906094542 | 52 | 47 | 4.3 | 13.9 | 0.01 | 0.33 | 0.04 | 93 | 1019.1 |
| 20260906093049 | 52 | 295 | 4.3 | 8.7 | 0.01 | 0.33 | 0.04 | 95 | 1019.4 |
| 20260906091541 | 51 | 15 | 7.8 | 12.2 | 0.01 | 0.33 | 0.04 | 95 | 1020.4 |
| 20260906090039 | 50 | 11 | 9.6 | 14.8 | 0.00 | 0.32 | 0.03 | 95 | 1020.8 |
| 20260906084541 | 51 | 314 | 4.3 | 12.2 | 0.01 | 0.32 | 0.03 | 94 | 1021.1 |
| 20260906083041 | 51 | 14 | 4.3 | 7.8 | 0.01 | 0.32 | 0.03 | 94 | 1020.3 |
| 20260906081539 | 51 | 322 | 5.2 | 10.4 | 0.01 | 0.32 | 0.03 | 94 | 1020.6 |
| 20260906080039 | 51 | 293 | 1.7 | 12.2 | 0.01 | 0.32 | 0.03 | 93 | 1021.0 |
| 20260906074541 | 52 | 293 | 6.1 | 12.2 | 0.00 | 0.31 | 0.02 | 94 | 1020.6 |
| 20260906073042 | 51 | 30 | 6.1 | 12.2 | 0.00 | 0.31 | 0.02 | 93 | 1020.6 |
| 20260906071540 | 52 | 36 | 7.0 | 11.3 | 0.00 | 0.31 | 0.02 | 93 | 1021.1 |
| 20260906070035 | 52 | 306 | 3.5 | 8.7 | 0.02 | 0.31 | 0.02 | 93 | 1021.3 |
| 20260906064542 | 52 | 23 | 4.3 | 11.3 | 0.02 | 0.31 | 0.02 | 93 | 1021.3 |
| 20260906063041 | 52 | 313 | 7.0 | 11.3 | 0.02 | 0.31 | 0.02 | 92 | 1022.2 |
| 20260906061541 | 52 | 24 | 5.2 | 9.6 | 0.02 | 0.31 | 0.02 | 91 | 1022.1 |
| 20260906060040 | 52 | 263 | 6.1 | 10.4 | 0.06 | 0.29 | 0.00 | 90 | 1021.9 |
| 20260906054540 | 53 | 37 | 5.2 | 11.3 | 0.07 | 0.29 | 0.29 | 90 | 1021.5 |
| 20260906053041 | 52 | 43 | 3.5 | 10.4 | 0.07 | 0.29 | 0.29 | 91 | 1021.6 |
| 20260906051541 | 52 | 35 | 7.8 | 15.6 | 0.07 | 0.29 | 0.29 | 91 | 1021.4 |
| 20260906050045 | 53 | 324 | 4.3 | 12.2 | 0.01 | 0.23 | 0.23 | 89 | 1022.8 |
| 20260906044542 | 53 | 315 | 7.8 | 13.0 | 0.06 | 0.22 | 0.22 | 88 | 1021.1 |
| 20260906043039 | 52 | 35 | 5.2 | 11.3 | 0.13 | 0.22 | 0.22 | 89 | 1020.3 |
| 20260906041537 | 52 | 31 | 4.3 | 11.3 | 0.14 | 0.22 | 0.22 | 89 | 1020.9 |
| 20260906040037 | 52 | 317 | 7.8 | 13.9 | 0.14 | 0.22 | 0.22 | 89 | 1020.2 |
| 20260906034542 | 53 | 342 | 3.5 | 7.8 | 0.07 | 0.15 | 0.15 | 87 | 1022.7 |
| 20260906033038 | 55 | 275 | 5.2 | 13.0 | 0.01 | 0.09 | 0.09 | 82 | 1021.6 |
| 20260906031540 | 56 | 11 | 7.0 | 13.0 | 0.00 | 0.08 | 0.08 | 77 | 1020.7 |
| 20260906030045 | 56 | 342 | 7.0 | 13.9 | 0.00 | 0.08 | 0.08 | 76 | 1020.2 |
| 20260906024541 | 56 | 17 | 7.0 | 13.9 | 0.00 | 0.08 | 0.08 | 76 | 1019.6 |
| 20260906023048 | 56 | 22 | 6.1 | 10.4 | 0.00 | 0.08 | 0.08 | 75 | 1019.7 |
| 20260906021545 | 56 | 329 | 7.0 | 13.9 | 0.00 | 0.08 | 0.08 | 74 | 1019.8 |
| 20260906020039 | 57 | 318 | 6.1 | 14.8 | 0.00 | 0.08 | 0.08 | 74 | 1019.7 |
| 20260906014547 | 57 | 10 | 6.1 | 11.3 | 0.00 | 0.08 | 0.08 | 72 | 1019.7 |
| 20260906013046 | 58 | 5 | 5.2 | 10.4 | 0.00 | 0.08 | 0.08 | 71 | 1019.6 |
| 20260906011537 | 59 | 24 | 6.1 | 12.2 | 0.00 | 0.08 | 0.08 | 71 | 1019.6 |
| 20260906010043 | 59 | 345 | 6.1 | 13.0 | 0.00 | 0.08 | 0.08 | 70 | 1019.6 |
| 20260906004540 | 60 | 20 | 5.2 | 10.4 | 0.00 | 0.08 | 0.08 | 69 | 1019.8 |
| 20260906003042 | 60 | 329 | 6.1 | 11.3 | 0.00 | 0.08 | 0.08 | 67 | 1019.8 |
| 20260906001540 | 61 | 343 | 7.0 | 13.9 | 0.00 | 0.08 | 0.08 | 67 | 1019.9 |
| 20260906000042 | 61 | 34 | 5.2 | 10.4 | 0.00 | 0.08 | 0.08 | 67 | 1020.0 |
| 20260905234541 | 62 | 351 | 6.1 | 12.2 | 0.00 | 0.08 | 0.08 | 65 | 1020.2 |
| 20260905233041 | 63 | 11 | 5.2 | 9.6 | 0.00 | 0.08 | 0.08 | 65 | 1020.2 |
| 20260905231541 | 64 | 27 | 4.3 | 10.4 | 0.00 | 0.08 | 0.08 | 62 | 1020.0 |